カタログに戻る

GLOBAL-4

運用中通信VLEO
NORAD 44499·PAYLOAD·🇺🇸 United States

打ち上げ Aug 19, 2019 から Rocket Lab Launch Complex 1

Loading…

次のパス (今後24時間)

TLE

最新Source: Space-Track

元期: Sep 14, 2026, 12:34 UTC

1 44499U 19054E   26257.52418233  .00075233  00000-0  49866-3 0  9995
2 44499  45.0026  77.2934 0008112 258.5692 101.4298 15.74591117394394

AllMySatでGLOBAL-4をリアルタイム追跡

Download on the App Store